User: anonymous   Login
Location: Elstree
(51.6403°N, 0.2969°W)
Time: 11:46:36
(UTC+00:00)
Language:

Meteor 1-13 Rocket - Orbit

View from above orbital plane
View from above orbital plane
View from above satellite
View from above satellite

Ground track
Ground track

The orbit data is extracted from the following two-line orbital elements,

1 06257U 72085B   21131.73056491  .00000032  00000-0  11459-4 0  9994
2 06257  81.2617 223.1644 0058062  81.5529 279.2215 14.06467374489461
Epoch (UTC): 11 May 2021 17:32:00
Eccentricity: 0.0058062
inclination: 81.2617°
perigee height: 829 km
apogee height: 913 km
right ascension of ascending node: 223.1644°
argument of perigee: 81.5529°
revolutions per day: 14.06467374
mean anomaly at epoch: 279.2215°
orbit number at epoch: 48946

The dashed part of the orbit path shows where the satellite is in the earth's shadow,  

DLR